| time (UTC) | temp F | wind direction | speed knots | gust knots | rain 1hr in | rain 24hr in | rain mn in | humidity % | barometer mb |
| 20260509173050 | 60 | 109 | 0.9 | 4.3 | 0.00 | 0.02 | 0.02 | 75 | 991.0 |
| 20260509171539 | 59 | 46 | 0.0 | 1.7 | 0.00 | 0.02 | 0.02 | 80 | 991.3 |
| 20260509170033 | 58 | 28 | 0.0 | 1.7 | 0.00 | 0.02 | 0.02 | 78 | 991.5 |
| 20260509164526 | 57 | 65 | 0.0 | 0.9 | 0.00 | 0.02 | 0.02 | 79 | 991.5 |
| 20260509163025 | 57 | 61 | 0.0 | 1.7 | 0.00 | 0.02 | 0.02 | 78 | 991.6 |
| 20260509161524 | 57 | 140 | 0.0 | 1.7 | 0.00 | 0.02 | 0.02 | 78 | 991.9 |
| 20260509160022 | 56 | 174 | 0.0 | 1.7 | 0.00 | 0.02 | 0.02 | 81 | 991.9 |
| 20260509154521 | 56 | 174 | 0.0 | 0.9 | 0.00 | 0.02 | 0.02 | 83 | 991.6 |
| 20260509153020 | 56 | 117 | 0.0 | 1.7 | 0.00 | 0.02 | 0.02 | 81 | 991.5 |
| 20260509151519 | 55 | 141 | 0.0 | 1.7 | 0.00 | 0.02 | 0.02 | 86 | 991.7 |
| 20260509150015 | 54 | 238 | 0.0 | 0.0 | 0.00 | 0.02 | 0.02 | 86 | 991.7 |
| 20260509144514 | 53 | 182 | 0.0 | 0.0 | 0.00 | 0.02 | 0.02 | 89 | 991.9 |
| 20260509143015 | 52 | 121 | 0.0 | 0.0 | 0.00 | 0.02 | 0.02 | 90 | 992.0 |
| 20260509141520 | 52 | 121 | 0.0 | 0.0 | 0.01 | 0.02 | 0.02 | 90 | 992.0 |
| 20260509140015 | 51 | 121 | 0.0 | 0.0 | 0.01 | 0.02 | 0.02 | 91 | 991.8 |
| 20260509134512 | 51 | 121 | 0.0 | 0.0 | 0.01 | 0.02 | 0.02 | 91 | 991.7 |
| 20260509133013 | 51 | 121 | 0.0 | 0.0 | 0.02 | 0.02 | 0.02 | 90 | 991.8 |
| 20260509131515 | 51 | 121 | 0.0 | 0.9 | 0.01 | 0.01 | 0.01 | 90 | 992.0 |
| 20260509130009 | 51 | 119 | 0.9 | 1.7 | 0.01 | 0.01 | 0.01 | 89 | 991.8 |
| 20260509124507 | 51 | 98 | 0.0 | 1.7 | 0.01 | 0.01 | 0.01 | 89 | 991.8 |
| 20260509123018 | 51 | 355 | 0.9 | 2.6 | 0.00 | 0.00 | 0.00 | 86 | 991.4 |
| 20260509121506 | 51 | 5 | 0.0 | 1.7 | 0.00 | 0.00 | 0.00 | 85 | 991.8 |
| 20260509120006 | 52 | 5 | 0.9 | 1.7 | 0.00 | 0.00 | 0.00 | 83 | 991.8 |
| 20260509114505 | 52 | 104 | 0.0 | 0.9 | 0.00 | 0.00 | 0.00 | 84 | 991.9 |
| 20260509113003 | 51 | 104 | 0.0 | 0.9 | 0.00 | 0.00 | 0.00 | 87 | 991.8 |
| 20260509111502 | 51 | 86 | 0.0 | 0.9 | 0.00 | 0.00 | 0.00 | 86 | 991.8 |
| 20260509110108 | 51 | 142 | 0.0 | 0.9 | 0.00 | 0.00 | 0.00 | 85 | 991.7 |
| 20260509104610 | 51 | 142 | 0.0 | 0.9 | 0.00 | 0.00 | 0.00 | 85 | 991.5 |
| 20260509103058 | 51 | 127 | 0.0 | 0.0 | 0.00 | 0.00 | 0.00 | 84 | 991.1 |
| 20260509101559 | 51 | 127 | 0.0 | 1.7 | 0.00 | 0.00 | 0.00 | 84 | 991.1 |
| 20260509100057 | 51 | 127 | 0.0 | 0.0 | 0.00 | 0.00 | 0.00 | 84 | 991.2 |
| 20260509094610 | 51 | 127 | 0.0 | 0.0 | 0.00 | 0.00 | 0.00 | 82 | 991.1 |
| 20260509093055 | 51 | 127 | 0.0 | 0.0 | 0.00 | 0.00 | 0.00 | 83 | 990.8 |
| 20260509091556 | 51 | 127 | 0.0 | 0.0 | 0.00 | 0.00 | 0.00 | 83 | 990.8 |
| 20260509084600 | 51 | 127 | 0.0 | 0.9 | 0.00 | 0.00 | 0.00 | 83 | 990.9 |
| 20260509083051 | 51 | 127 | 0.0 | 0.0 | 0.00 | 0.00 | 0.00 | 82 | 990.9 |
| 20260509081550 | 51 | 127 | 0.0 | 0.0 | 0.00 | 0.00 | 0.00 | 81 | 990.9 |
| 20260509080048 | 51 | 127 | 0.0 | 0.0 | 0.00 | 0.00 | 0.00 | 81 | 991.1 |
| 20260509074551 | 52 | 127 | 0.0 | 0.0 | 0.00 | 0.00 | 0.00 | 81 | 991.0 |
| 20260509073047 | 51 | 129 | 0.9 | 2.6 | 0.00 | 0.00 | 0.00 | 80 | 991.1 |
| 20260509071548 | 51 | 229 | 0.0 | 0.0 | 0.00 | 0.00 | 0.00 | 79 | 991.1 |
| 20260509070046 | 51 | 229 | 0.0 | 0.9 | 0.00 | 0.00 | 0.00 | 77 | 991.1 |
| 20260509064542 | 51 | 229 | 0.0 | 0.0 | 0.00 | 0.00 | 0.00 | 77 | 990.9 |
| 20260509063041 | 51 | 229 | 0.0 | 0.0 | 0.00 | 0.00 | 0.00 | 78 | 991.1 |
| 20260509061539 | 52 | 229 | 0.0 | 0.0 | 0.00 | 0.00 | 0.00 | 77 | 991.2 |
| 20260509060039 | 52 | 229 | 0.0 | 0.0 | 0.00 | 0.00 | 0.00 | 76 | 991.3 |
| 20260509054542 | 52 | 229 | 0.0 | 0.0 | 0.00 | 0.00 | 0.00 | 74 | 991.4 |
| 20260509053115 | 53 | 229 | 0.0 | 0.0 | 0.00 | 0.00 | 0.00 | 77 | 991.5 |
| 20260509051542 | 53 | 229 | 0.0 | 0.0 | 0.00 | 0.00 | 0.00 | 73 | 991.6 |
| 20260509050043 | 53 | 229 | 0.0 | 0.0 | 0.00 | 0.00 | 0.00 | 73 | 991.6 |
| 20260509044532 | 53 | 229 | 0.0 | 0.0 | 0.00 | 0.00 | 0.00 | 75 | 991.5 |
| 20260509043030 | 53 | 229 | 0.0 | 0.0 | 0.00 | 0.00 | 0.00 | 76 | 991.4 |
| 20260509041529 | 53 | 229 | 0.0 | 0.0 | 0.00 | 0.00 | 0.00 | 74 | 991.4 |
| 20260509040025 | 54 | 229 | 0.0 | 0.0 | 0.00 | 0.00 | 0.00 | 74 | 991.6 |
| 20260509034524 | 54 | 229 | 0.0 | 0.0 | 0.00 | 0.00 | 0.00 | 69 | 991.8 |
| 20260509033026 | 55 | 229 | 0.0 | 0.0 | 0.00 | 0.00 | 0.00 | 68 | 991.9 |
| 20260509031524 | 55 | 229 | 0.0 | 1.7 | 0.00 | 0.00 | 0.00 | 66 | 991.9 |
| 20260509030031 | 56 | 229 | 0.0 | 0.0 | 0.00 | 0.00 | 0.00 | 71 | 992.0 |
| 20260509024523 | 56 | 229 | 0.0 | 0.0 | 0.00 | 0.00 | 0.00 | 71 | 992.0 |
| 20260509023029 | 56 | 111 | 0.0 | 2.6 | 0.00 | 0.00 | 0.00 | 74 | 991.9 |
| 20260509021522 | 56 | 173 | 0.0 | 1.7 | 0.00 | 0.00 | 0.00 | 69 | 992.1 |
| 20260509020022 | 57 | 122 | 0.0 | 1.7 | 0.00 | 0.00 | 0.00 | 66 | 992.0 |
| 20260509014520 | 57 | 177 | 0.0 | 0.0 | 0.00 | 0.00 | 0.00 | 68 | 992.2 |
| 20260509013026 | 57 | 177 | 0.0 | 1.7 | 0.00 | 0.00 | 0.00 | 63 | 992.1 |
| 20260509011520 | 57 | 177 | 0.0 | 0.0 | 0.00 | 0.00 | 0.00 | 64 | 991.9 |
| 20260509010020 | 57 | 177 | 0.0 | 0.0 | 0.00 | 0.00 | 0.00 | 63 | 991.8 |
| 20260509004518 | 58 | 177 | 0.0 | 0.0 | 0.00 | 0.00 | 0.00 | 64 | 991.8 |
| 20260509003033 | 60 | 227 | 0.0 | 0.0 | 0.00 | 0.00 | 0.00 | 59 | 991.7 |
| 20260509001518 | 62 | 205 | 0.0 | 0.0 | 0.00 | 0.00 | 0.00 | 53 | 991.6 |
| 20260509000017 | 64 | 205 | 0.0 | 0.0 | 0.00 | 0.00 | 0.00 | 50 | 991.5 |
| 20260508234518 | 65 | 205 | 0.0 | 0.0 | 0.00 | 0.00 | 0.00 | 46 | 991.4 |
| 20260508233016 | 65 | 205 | 0.0 | 0.9 | 0.00 | 0.00 | 0.00 | 44 | 991.3 |
| 20260508231516 | 65 | 306 | 0.0 | 0.9 | 0.00 | 0.00 | 0.00 | 42 | 991.3 |
| 20260508230015 | 65 | 302 | 0.0 | 0.0 | 0.00 | 0.00 | 0.00 | 44 | 991.4 |
| 20260508224513 | 65 | 302 | 0.0 | 0.9 | 0.00 | 0.00 | 0.00 | 45 | 991.3 |
| 20260508223017 | 65 | 263 | 0.9 | 2.6 | 0.00 | 0.00 | 0.00 | 41 | 991.4 |
| 20260508221520 | 66 | 286 | 0.0 | 1.7 | 0.00 | 0.00 | 0.00 | 39 | 991.5 |
| 20260508220016 | 66 | 261 | 0.0 | 2.6 | 0.00 | 0.00 | 0.00 | 41 | 991.4 |
| 20260508214511 | 66 | 265 | 0.9 | 6.1 | 0.00 | 0.00 | 0.00 | 39 | 991.5 |
| 20260508213010 | 66 | 269 | 0.0 | 2.6 | 0.00 | 0.00 | 0.00 | 39 | 991.6 |
| 20260508211508 | 66 | 271 | 0.0 | 1.7 | 0.00 | 0.00 | 0.00 | 38 | 991.6 |
| 20260508210008 | 66 | 265 | 0.0 | 3.5 | 0.00 | 0.00 | 0.00 | 37 | 991.7 |
| 20260508204508 | 66 | 234 | 1.7 | 4.3 | 0.00 | 0.00 | 0.00 | 36 | 991.7 |
| 20260508203005 | 66 | 246 | 0.9 | 4.3 | 0.00 | 0.00 | 0.00 | 37 | 991.9 |
| 20260508201505 | 67 | 277 | 1.7 | 7.8 | 0.00 | 0.00 | 0.00 | 36 | 992.0 |
| 20260508200005 | 67 | 197 | 0.9 | 6.1 | 0.00 | 0.00 | 0.00 | 36 | 991.9 |
| 20260508194503 | 67 | 241 | 2.6 | 8.7 | 0.00 | 0.00 | 0.00 | 33 | 992.0 |
| 20260508193003 | 68 | 267 | 3.5 | 7.0 | 0.00 | 0.00 | 0.00 | 32 | 992.0 |
| 20260508191600 | 67 | 273 | 3.5 | 7.8 | 0.00 | 0.00 | 0.00 | 33 | 992.2 |
| 20260508190101 | 66 | 215 | 2.6 | 7.0 | 0.00 | 0.00 | 0.00 | 33 | 992.4 |
| 20260508184609 | 67 | 244 | 5.2 | 10.4 | 0.00 | 0.00 | 0.00 | 31 | 992.7 |
| 20260508183106 | 68 | 218 | 0.9 | 7.0 | 0.00 | 0.00 | 0.00 | 32 | 992.7 |
| 20260508181555 | 67 | 279 | 2.6 | 8.7 | 0.00 | 0.00 | 0.00 | 33 | 992.8 |
| 20260508180054 | 67 | 248 | 3.5 | 9.6 | 0.00 | 0.00 | 0.00 | 32 | 992.8 |
| 20260508174604 | 65 | 221 | 3.5 | 7.8 | 0.00 | 0.00 | 0.00 | 35 | 993.2 |